KLM3155 EPGD-EDDB

Flight info

Callsign KLM3155
Flight time N/A
Altitude 33000
Route IRLUN N133 GRUDA DCT KELOD/N0474F340 L979 GOVEN/N0454F280 T205 NUKRO
Aircraft A346/H-SDE2E3FGHIJ3J4J5M1RWXY/LB1D1

Departure

Time 2026-04-30 07:09
Airport Gdańsk Lech Wałęsa Airport (EPGD)

Arrival

Time N/A
Airport Berlin Brandenburg Airport (EDDB)
Time Latitude Longitude Altitude Speed Heading
2026-04-30 06:41 54.38133 18.46491 466 ft 0 kts 22°
2026-04-30 06:50 54.38129 18.46488 466 ft 2 kts 22°
2026-04-30 06:50 54.38114 18.46478 466 ft 2 kts 22°
2026-04-30 06:50 54.38100 18.46467 466 ft 2 kts 22°
2026-04-30 06:50 54.38086 18.46457 466 ft 2 kts 22°
2026-04-30 06:51 54.38071 18.46447 466 ft 2 kts 22°
2026-04-30 06:51 54.38064 18.46442 466 ft 2 kts 22°
2026-04-30 06:51 54.38055 18.46436 466 ft 2 kts 22°
2026-04-30 06:51 54.38040 18.46425 466 ft 2 kts 22°
2026-04-30 06:52 54.38025 18.46414 465 ft 2 kts 22°
2026-04-30 06:52 54.38012 18.46403 465 ft 2 kts 40°
2026-04-30 06:52 54.38003 18.46380 465 ft 2 kts 78°
2026-04-30 06:52 54.38004 18.46353 465 ft 1 kts 111°
2026-04-30 06:53 54.38006 18.46344 465 ft 0 kts 114°
2026-04-30 06:53 54.38006 18.46345 465 ft 0 kts 114°
2026-04-30 06:57 54.37993 18.46394 465 ft 10 kts 114°
2026-04-30 06:58 54.37948 18.46561 465 ft 18 kts 114°
2026-04-30 06:58 54.37893 18.46792 466 ft 21 kts 109°
2026-04-30 06:58 54.37832 18.47046 466 ft 22 kts 112°
2026-04-30 06:58 54.37766 18.47304 469 ft 22 kts 113°
2026-04-30 06:59 54.37700 18.47568 473 ft 22 kts 113°
2026-04-30 06:59 54.37639 18.47813 477 ft 21 kts 112°
2026-04-30 06:59 54.37583 18.48049 482 ft 20 kts 112°
2026-04-30 06:59 54.37524 18.48281 487 ft 21 kts 114°
2026-04-30 07:00 54.37461 18.48527 493 ft 22 kts 113°
2026-04-30 07:00 54.37397 18.48801 497 ft 25 kts 110°
2026-04-30 07:00 54.37334 18.49056 502 ft 17 kts 113°
2026-04-30 07:00 54.37291 18.49219 504 ft 12 kts 126°
2026-04-30 07:01 54.37234 18.49251 504 ft 8 kts 187°
2026-04-30 07:01 54.37199 18.49231 504 ft 0 kts 212°
2026-04-30 07:01 54.37197 18.49229 504 ft 1 kts 215°
2026-04-30 07:01 54.37183 18.49203 503 ft 4 kts 232°
2026-04-30 07:02 54.37163 18.49139 503 ft 7 kts 250°
2026-04-30 07:02 54.37172 18.48995 501 ft 10 kts 289°
2026-04-30 07:02 54.37176 18.48976 501 ft 0 kts 290°
2026-04-30 07:02 54.37177 18.48973 501 ft 1 kts 290°
2026-04-30 07:03 54.37188 18.48925 501 ft 6 kts 290°
2026-04-30 07:03 54.37209 18.48824 499 ft 10 kts 290°
2026-04-30 07:03 54.37241 18.48677 496 ft 12 kts 290°
2026-04-30 07:03 54.37243 18.48667 496 ft 0 kts 290°
2026-04-30 07:08 54.37244 18.48667 496 ft 0 kts 290°
2026-04-30 07:08 54.37352 18.48232 487 ft 82 kts 296°
2026-04-30 07:09 54.37695 18.46876 466 ft 153 kts 295°
2026-04-30 07:09 54.38208 18.44964 670 ft 191 kts 292°
2026-04-30 07:09 54.38810 18.42673 972 ft 224 kts 292°
2026-04-30 07:09 54.39473 18.40139 1636 ft 237 kts 292°
2026-04-30 07:10 54.40179 18.37428 2516 ft 248 kts 292°
2026-04-30 07:10 54.40866 18.34622 3414 ft 259 kts 277°
2026-04-30 07:10 54.40844 18.31187 3722 ft 291 kts 269°
2026-04-30 07:10 54.41093 18.27732 5246 ft 281 kts 285°
2026-04-30 07:11 54.41895 18.24837 6609 ft 270 kts 304°
2026-04-30 07:11 54.43085 18.22373 7757 ft 263 kts 310°
2026-04-30 07:11 54.44081 18.19869 8890 ft 246 kts 282°
2026-04-30 07:11 54.44092 18.17072 9800 ft 236 kts 247°
2026-04-30 07:12 54.43131 18.14923 10556 ft 237 kts 211°
2026-04-30 07:12 54.41548 18.14236 11284 ft 245 kts 175°
2026-04-30 07:12 54.39867 18.14840 12062 ft 249 kts 175°
2026-04-30 07:12 54.38172 18.14911 12825 ft 248 kts 189°
2026-04-30 07:13 54.36463 18.14455 13590 ft 252 kts 185°
2026-04-30 07:13 54.34740 18.14899 14297 ft 262 kts 160°
2026-04-30 07:13 54.33175 18.16692 14780 ft 284 kts 138°
2026-04-30 07:13 54.31805 18.19236 15181 ft 303 kts 135°
2026-04-30 07:14 54.30311 18.22086 15589 ft 321 kts 135°
2026-04-30 07:14 54.28625 18.24777 15971 ft 337 kts 146°
2026-04-30 07:14 54.26615 18.26936 16335 ft 352 kts 156°
2026-04-30 07:14 54.24181 18.28725 16719 ft 370 kts 161°
2026-04-30 07:15 54.21723 18.30365 17057 ft 388 kts 161°
2026-04-30 07:15 54.19116 18.32091 17585 ft 401 kts 161°
2026-04-30 07:15 54.16388 18.33917 18411 ft 406 kts 161°
2026-04-30 07:15 54.13752 18.35691 19192 ft 411 kts 161°
2026-04-30 07:16 54.11087 18.37488 19928 ft 416 kts 161°
2026-04-30 07:16 54.08376 18.39316 20649 ft 422 kts 161°
2026-04-30 07:16 54.05644 18.41154 21351 ft 427 kts 161°
2026-04-30 07:16 54.02852 18.43027 22041 ft 432 kts 161°
2026-04-30 07:17 53.99971 18.44957 22727 ft 437 kts 161°
2026-04-30 07:17 53.97127 18.46857 23379 ft 442 kts 161°
2026-04-30 07:17 53.91342 18.50711 24622 ft 452 kts 161°
2026-04-30 07:18 53.88314 18.52722 25238 ft 457 kts 161°
2026-04-30 07:18 53.85329 18.54696 25830 ft 461 kts 161°
2026-04-30 07:18 53.82235 18.56742 26419 ft 466 kts 161°
2026-04-30 07:18 53.79190 18.58756 26968 ft 471 kts 161°
2026-04-30 07:19 53.76084 18.60810 27512 ft 475 kts 161°
2026-04-30 07:19 53.72973 18.63021 28041 ft 481 kts 158°
2026-04-30 07:19 53.69873 18.65293 28559 ft 485 kts 160°
2026-04-30 07:19 53.66746 18.67575 29131 ft 487 kts 160°
2026-04-30 07:20 53.63642 18.69840 29857 ft 485 kts 160°
2026-04-30 07:20 53.60474 18.71629 30543 ft 478 kts 171°
2026-04-30 07:20 53.57211 18.72208 31160 ft 472 kts 184°
2026-04-30 07:20 53.53996 18.71586 31718 ft 465 kts 197°
2026-04-30 07:21 53.51176 18.70008 32204 ft 460 kts 208°
2026-04-30 07:21 53.48425 18.67322 32720 ft 455 kts 220°
2026-04-30 07:21 53.46057 18.63725 33229 ft 450 kts 232°
2026-04-30 07:21 53.44150 18.59551 33743 ft 447 kts 237°
2026-04-30 07:22 53.40551 18.50985 34688 ft 447 kts 238°
2026-04-30 07:22 53.38762 18.46726 35115 ft 447 kts 238°
2026-04-30 07:22 53.36949 18.42431 35493 ft 449 kts 237°
2026-04-30 07:23 53.35138 18.38156 35833 ft 450 kts 237°
2026-04-30 07:23 53.33336 18.33920 36149 ft 452 kts 237°
2026-04-30 07:23 53.31477 18.29548 36400 ft 454 kts 237°
2026-04-30 07:23 53.29630 18.25213 36440 ft 456 kts 237°
2026-04-30 07:24 53.25948 18.16610 36447 ft 456 kts 237°
2026-04-30 07:24 53.22070 18.07594 36448 ft 456 kts 237°
2026-04-30 07:25 53.18268 17.98788 36448 ft 456 kts 237°
2026-04-30 07:25 53.14454 17.89989 36448 ft 456 kts 237°
2026-04-30 07:26 53.10673 17.81297 36448 ft 456 kts 237°
2026-04-30 07:26 53.06898 17.72652 36448 ft 457 kts 237°
2026-04-30 07:27 53.03117 17.64021 36448 ft 458 kts 237°
2026-04-30 07:27 52.99337 17.55422 36448 ft 460 kts 238°
2026-04-30 07:28 52.95557 17.46847 36448 ft 462 kts 238°
2026-04-30 07:28 52.91756 17.38248 36449 ft 463 kts 238°
2026-04-30 07:29 52.87878 17.29521 36448 ft 463 kts 237°
2026-04-30 07:29 52.84047 17.20959 36448 ft 463 kts 237°
2026-04-30 07:30 52.78192 17.07894 36448 ft 463 kts 237°
2026-04-30 07:31 52.74347 16.99344 36448 ft 462 kts 237°
2026-04-30 07:31 52.70524 16.90884 36449 ft 459 kts 238°
2026-04-30 07:32 52.68203 16.85758 36448 ft 458 kts 239°
2026-04-30 07:32 52.64268 16.77075 36448 ft 455 kts 240°
2026-04-30 07:33 52.60421 16.68591 36448 ft 455 kts 240°
2026-04-30 07:33 52.56572 16.60140 36448 ft 455 kts 240°
2026-04-30 07:34 52.52729 16.51737 36446 ft 455 kts 239°
2026-04-30 07:34 52.50806 16.47544 36129 ft 456 kts 239°
2026-04-30 07:34 52.48901 16.43398 35563 ft 456 kts 239°
2026-04-30 07:34 52.46862 16.38966 34898 ft 457 kts 239°
2026-04-30 07:35 52.44626 16.34114 34156 ft 457 kts 239°
2026-04-30 07:35 52.42696 16.29923 33502 ft 457 kts 239°
2026-04-30 07:35 52.40802 16.25811 32879 ft 456 kts 238°
2026-04-30 07:35 52.38840 16.21567 32232 ft 453 kts 238°
2026-04-30 07:36 52.36950 16.17489 31608 ft 449 kts 238°
2026-04-30 07:36 52.35056 16.13411 30965 ft 445 kts 238°
2026-04-30 07:36 52.33167 16.09350 30315 ft 442 kts 238°
2026-04-30 07:36 52.31294 16.05327 29662 ft 438 kts 237°
2026-04-30 07:37 52.29397 16.01265 28981 ft 436 kts 237°
2026-04-30 07:37 52.27539 15.97291 28391 ft 435 kts 237°
2026-04-30 07:37 52.25737 15.93360 28024 ft 427 kts 240°
2026-04-30 07:37 52.24207 15.89213 27602 ft 420 kts 246°
2026-04-30 07:38 52.23016 15.84898 27170 ft 413 kts 252°
2026-04-30 07:38 52.22144 15.80410 26735 ft 408 kts 257°
2026-04-30 07:38 52.21413 15.75709 26287 ft 405 kts 258°
2026-04-30 07:38 52.20732 15.71175 25850 ft 402 kts 258°
2026-04-30 07:39 52.20060 15.66702 25416 ft 399 kts 258°
2026-04-30 07:39 52.19392 15.62283 24982 ft 397 kts 258°
2026-04-30 07:39 52.18722 15.57884 24548 ft 395 kts 258°
2026-04-30 07:39 52.18056 15.53532 24118 ft 392 kts 258°
2026-04-30 07:40 52.17362 15.49025 23666 ft 390 kts 258°
2026-04-30 07:40 52.16708 15.44779 23243 ft 388 kts 257°
2026-04-30 07:40 52.16043 15.40482 22810 ft 387 kts 257°
2026-04-30 07:40 52.15380 15.36210 22370 ft 385 kts 257°
2026-04-30 07:41 52.14715 15.31927 21923 ft 384 kts 256°
2026-04-30 07:41 52.14066 15.27750 21486 ft 382 kts 256°
2026-04-30 07:41 52.13398 15.23459 21037 ft 381 kts 256°
2026-04-30 07:41 52.12747 15.19293 20601 ft 379 kts 256°
2026-04-30 07:42 52.12101 15.15171 20166 ft 378 kts 256°
2026-04-30 07:42 52.11451 15.11041 19731 ft 376 kts 256°
2026-04-30 07:42 52.10802 15.06925 19314 ft 374 kts 256°
2026-04-30 07:42 52.10153 15.02816 18915 ft 371 kts 256°
2026-04-30 07:43 52.09518 14.98807 18524 ft 368 kts 256°
2026-04-30 07:43 52.08877 14.94767 18123 ft 365 kts 256°
2026-04-30 07:43 52.08225 14.90670 17709 ft 363 kts 255°
2026-04-30 07:43 52.07582 14.86644 17292 ft 360 kts 255°
2026-04-30 07:44 52.06945 14.82659 16865 ft 358 kts 255°
2026-04-30 07:44 52.06354 14.78698 16428 ft 356 kts 258°
2026-04-30 07:44 52.05918 14.74622 15984 ft 354 kts 261°
2026-04-30 07:44 52.05661 14.70583 15543 ft 353 kts 265°
2026-04-30 07:45 52.05525 14.66604 15118 ft 352 kts 265°
2026-04-30 07:45 52.05399 14.62569 14683 ft 351 kts 266°
2026-04-30 07:45 52.05272 14.58487 14245 ft 350 kts 266°
2026-04-30 07:45 52.05147 14.54516 13822 ft 349 kts 266°
2026-04-30 07:46 52.05019 14.50497 13400 ft 348 kts 266°
2026-04-30 07:46 52.04892 14.46530 12986 ft 347 kts 266°
2026-04-30 07:46 52.04850 14.42548 12571 ft 346 kts 270°
2026-04-30 07:46 52.04963 14.38544 12331 ft 356 kts 273°
2026-04-30 07:47 52.05213 14.34419 12357 ft 359 kts 274°
2026-04-30 07:47 52.05491 14.30234 12383 ft 359 kts 274°
2026-04-30 07:47 52.05767 14.26104 12407 ft 359 kts 274°
2026-04-30 07:47 52.06040 14.22004 12431 ft 359 kts 274°
2026-04-30 07:48 52.06314 14.17872 12455 ft 359 kts 274°
2026-04-30 07:48 52.06585 14.13754 12478 ft 359 kts 274°
2026-04-30 07:48 52.06856 14.09610 12500 ft 359 kts 274°
2026-04-30 07:48 52.07180 14.04611 12508 ft 359 kts 274°
2026-04-30 07:49 52.07467 14.00177 12497 ft 359 kts 274°
2026-04-30 07:49 52.07728 13.96101 12340 ft 360 kts 274°
2026-04-30 07:49 52.07984 13.92069 11787 ft 361 kts 274°
2026-04-30 07:49 52.08269 13.87577 11277 ft 358 kts 274°
2026-04-30 07:50 52.08536 13.83362 10837 ft 355 kts 274°
2026-04-30 07:50 52.08798 13.79208 10695 ft 340 kts 275°
2026-04-30 07:50 52.09040 13.75367 10671 ft 319 kts 274°
2026-04-30 07:50 52.09268 13.71733 10649 ft 300 kts 274°
2026-04-30 07:51 52.09481 13.68307 10606 ft 282 kts 274°
2026-04-30 07:51 52.09677 13.65130 10573 ft 269 kts 274°
2026-04-30 07:51 52.09875 13.61998 10534 ft 260 kts 275°
2026-04-30 07:51 52.10099 13.59015 10263 ft 262 kts 275°
2026-04-30 07:52 52.10336 13.55953 9926 ft 262 kts 276°
2026-04-30 07:52 52.10568 13.52959 9634 ft 261 kts 276°
2026-04-30 07:52 52.10806 13.49873 9323 ft 261 kts 276°
2026-04-30 07:52 52.11036 13.46849 9023 ft 260 kts 276°
2026-04-30 07:53 52.11255 13.43930 8735 ft 259 kts 276°
2026-04-30 07:53 52.11476 13.40968 8499 ft 255 kts 276°
2026-04-30 07:53 52.11693 13.38122 8485 ft 240 kts 276°
2026-04-30 07:53 52.11997 13.35370 8467 ft 233 kts 288°
2026-04-30 07:54 52.12751 13.32976 8263 ft 237 kts 302°
2026-04-30 07:54 52.13747 13.30774 7960 ft 237 kts 304°
2026-04-30 07:54 52.14751 13.28644 7684 ft 235 kts 304°
2026-04-30 07:54 52.15752 13.26512 7413 ft 234 kts 304°
2026-04-30 07:55 52.16879 13.24092 7102 ft 232 kts 304°
2026-04-30 07:55 52.17871 13.21952 6836 ft 232 kts 304°
2026-04-30 07:55 52.18613 13.19624 6560 ft 225 kts 276°
2026-04-30 07:55 52.18465 13.17093 6534 ft 225 kts 249°
2026-04-30 07:56 52.17892 13.14697 6527 ft 224 kts 248°
2026-04-30 07:56 52.17306 13.12312 6523 ft 224 kts 248°
2026-04-30 07:56 52.16715 13.09910 6522 ft 223 kts 248°
2026-04-30 07:56 52.16134 13.07529 6522 ft 221 kts 248°
2026-04-30 07:57 52.15558 13.05155 6521 ft 221 kts 248°
2026-04-30 07:57 52.14978 13.02767 6522 ft 221 kts 247°
2026-04-30 07:57 52.14383 13.00316 6516 ft 207 kts 247°
2026-04-30 07:57 52.13864 12.98185 6512 ft 195 kts 247°
2026-04-30 07:58 52.13356 12.96098 6521 ft 196 kts 247°
2026-04-30 07:58 52.12848 12.94016 6521 ft 195 kts 247°
2026-04-30 07:58 52.12344 12.91956 6520 ft 193 kts 247°
2026-04-30 07:58 52.11841 12.89897 6518 ft 188 kts 247°
2026-04-30 07:59 52.11317 12.87755 6521 ft 188 kts 247°
2026-04-30 07:59 52.10798 12.85639 6521 ft 188 kts 247°
2026-04-30 07:59 52.10307 12.83633 6521 ft 188 kts 247°
2026-04-30 08:00 52.09321 12.79617 6522 ft 188 kts 247°
2026-04-30 08:00 52.08821 12.77582 6522 ft 188 kts 247°
2026-04-30 08:00 52.08315 12.75526 6522 ft 188 kts 247°
2026-04-30 08:00 52.07845 12.73543 6893 ft 187 kts 248°
2026-04-30 08:01 52.07610 12.71432 6893 ft 194 kts 270°
2026-04-30 08:01 52.08028 12.69270 6550 ft 196 kts 299°
2026-04-30 08:01 52.09079 12.67666 6516 ft 203 kts 327°
2026-04-30 08:01 52.10471 12.66645 6529 ft 205 kts 334°
2026-04-30 08:02 52.13302 12.65474 6512 ft 211 kts
2026-04-30 08:02 52.14696 12.66378 6515 ft 216 kts 36°
2026-04-30 08:03 52.16288 12.70865 6515 ft 217 kts 73°
2026-04-30 08:03 52.17355 12.75705 6524 ft 217 kts 71°
2026-04-30 08:03 52.17913 12.78035 6522 ft 217 kts 70°
2026-04-30 08:04 52.18538 12.80599 6522 ft 217 kts 70°
2026-04-30 08:04 52.19112 12.82945 6522 ft 217 kts 70°
2026-04-30 08:04 52.19710 12.85391 6521 ft 217 kts 70°
2026-04-30 08:04 52.20291 12.87767 6520 ft 217 kts 70°
2026-04-30 08:05 52.20900 12.90262 6515 ft 217 kts 70°
2026-04-30 08:05 52.21494 12.92703 6284 ft 217 kts 70°
2026-04-30 08:05 52.22042 12.94951 6008 ft 211 kts 70°
2026-04-30 08:05 52.22578 12.97155 5743 ft 204 kts 69°
2026-04-30 08:06 52.23096 12.99283 5592 ft 202 kts 69°
2026-04-30 08:06 52.23613 13.01415 5530 ft 202 kts 69°
2026-04-30 08:06 52.24183 13.03624 5483 ft 202 kts 66°
2026-04-30 08:06 52.24808 13.05843 5363 ft 202 kts 66°
2026-04-30 08:07 52.25400 13.08048 5083 ft 200 kts 67°
2026-04-30 08:07 52.25929 13.10142 4817 ft 198 kts 68°
2026-04-30 08:07 52.26447 13.12281 4535 ft 192 kts 67°
2026-04-30 08:07 52.26928 13.14280 4429 ft 172 kts 68°
2026-04-30 08:08 52.27463 13.16125 4019 ft 177 kts 58°
2026-04-30 08:08 52.28097 13.17963 3753 ft 165 kts 68°
2026-04-30 08:08 52.28447 13.19824 3535 ft 158 kts 75°
2026-04-30 08:08 52.28754 13.21622 3324 ft 158 kts 73°
2026-04-30 08:09 52.29107 13.23435 3106 ft 157 kts 70°
2026-04-30 08:09 52.29495 13.25233 2889 ft 156 kts 68°
2026-04-30 08:09 52.29887 13.26950 2678 ft 155 kts 67°
2026-04-30 08:09 52.30281 13.28635 2465 ft 153 kts 69°
2026-04-30 08:10 52.30710 13.30497 1602 ft 194 kts 68°
2026-04-30 08:10 52.31212 13.32617 2066 ft 210 kts 68°
2026-04-30 08:10 52.31804 13.35047 2099 ft 249 kts 67°
2026-04-30 08:10 52.32411 13.37578 2173 ft 221 kts 68°
2026-04-30 08:11 52.32945 13.39980 1630 ft 214 kts 70°
2026-04-30 08:11 52.33406 13.42215 1281 ft 200 kts 70°
2026-04-30 08:11 52.33921 13.44351 834 ft 197 kts 66°
2026-04-30 08:11 52.34455 13.46410 593 ft 182 kts 68°
2026-04-30 08:12 52.34950 13.48449 915 ft 204 kts 68°
2026-04-30 08:12 52.35511 13.50909 1163 ft 242 kts 68°
2026-04-30 08:12 52.36067 13.53763 1635 ft 274 kts 73°
2026-04-30 08:12 52.36707 13.57200 1914 ft 312 kts 71°
2026-04-30 08:13 52.37421 13.60852 2209 ft 323 kts 71°
2026-04-30 08:13 52.38137 13.64459 2593 ft 290 kts 72°
2026-04-30 08:13 52.38462 13.67723 2920 ft 258 kts 97°
2026-04-30 08:13 52.37872 13.70472 3015 ft 235 kts 130°
2026-04-30 08:14 52.36562 13.72093 3020 ft 212 kts 167°
2026-04-30 08:14 52.35084 13.72060 3024 ft 193 kts 207°
2026-04-30 08:14 52.34073 13.70597 3040 ft 191 kts 245°
2026-04-30 08:14 52.33859 13.68339 3039 ft 192 kts 272°
2026-04-30 08:15 52.33735 13.66070 3021 ft 191 kts 245°
2026-04-30 08:15 52.32919 13.64340 3032 ft 192 kts 222°